| time (UTC) | temp C | wind direction | speed KPH | gust KPH | rain 1hr cm | rain 24hr cm | rain mn cm | humidity % | barometer mb |
| 20260906164756 | 23 | 36 | 6.4 | 9.7 | 0.00 | 0.00 | 0.00 | 84 | 1233.4 |
| 20260906164255 | 23 | 119 | 9.7 | 12.9 | 0.00 | 0.00 | 0.00 | 83 | 1233.4 |
| 20260906163752 | 23 | 105 | 9.7 | 16.1 | 0.00 | 0.00 | 0.00 | 84 | 1233.4 |
| 20260906163248 | 23 | 75 | 9.7 | 12.9 | 0.00 | 0.00 | 0.00 | 84 | 1233.4 |
| 20260906162745 | 23 | 161 | 9.7 | 9.7 | 0.00 | 0.00 | 0.00 | 85 | 1233.4 |
| 20260906162239 | 23 | 138 | 4.8 | 8.0 | 0.00 | 0.00 | 0.00 | 85 | 1233.4 |
| 20260906161739 | 23 | 202 | 9.7 | 12.9 | 0.00 | 0.00 | 0.00 | 85 | 1233.4 |
| 20260906161238 | 23 | 145 | 8.0 | 12.9 | 0.00 | 0.00 | 0.00 | 85 | 1233.4 |
| 20260906160737 | 23 | 25 | 8.0 | 9.7 | 0.00 | 0.00 | 0.00 | 86 | 1233.4 |
| 20260906160237 | 23 | 155 | 6.4 | 9.7 | 0.00 | 0.00 | 0.00 | 86 | 1233.4 |
| 20260906155734 | 23 | 67 | 9.7 | 12.9 | 0.00 | 0.00 | 0.00 | 85 | 1233.4 |
| 20260906155230 | 23 | 194 | 1.6 | 3.2 | 0.00 | 0.00 | 0.00 | 86 | 1233.4 |
| 20260906154725 | 23 | 139 | 12.9 | 17.7 | 0.00 | 0.00 | 0.00 | 85 | 1233.4 |
| 20260906154220 | 23 | 172 | 8.0 | 9.7 | 0.00 | 0.00 | 0.00 | 86 | 1233.4 |
| 20260906153718 | 22 | 160 | 8.0 | 9.7 | 0.00 | 0.00 | 0.00 | 87 | 1233.4 |
| 20260906153213 | 23 | 81 | 9.7 | 9.7 | 0.00 | 0.00 | 0.00 | 87 | 1233.4 |
| 20260906152708 | 22 | 142 | 8.0 | 9.7 | 0.00 | 0.00 | 0.00 | 87 | 1233.4 |
| 20260906152203 | 22 | 161 | 12.9 | 16.1 | 0.00 | 0.00 | 0.00 | 88 | 1233.4 |
| 20260906151657 | 22 | 127 | 8.0 | 9.7 | 0.00 | 0.00 | 0.00 | 88 | 1233.4 |
| 20260906151154 | 22 | 150 | 4.8 | 8.0 | 0.00 | 0.00 | 0.00 | 88 | 1233.4 |
| 20260906150649 | 22 | 49 | 11.3 | 12.9 | 0.00 | 0.00 | 0.00 | 89 | 1233.4 |
| 20260906150144 | 22 | 87 | 9.7 | 12.9 | 0.00 | 0.00 | 0.00 | 89 | 1233.4 |
| 20260906145643 | 22 | 156 | 8.0 | 9.7 | 0.00 | 0.00 | 0.00 | 88 | 1233.4 |
| 20260906145143 | 22 | 196 | 8.0 | 9.7 | 0.00 | 0.00 | 0.00 | 89 | 1233.4 |
| 20260906144637 | 22 | 170 | 9.7 | 12.9 | 0.00 | 0.00 | 0.00 | 90 | 1233.4 |
| 20260906144132 | 22 | 221 | 4.8 | 8.0 | 0.00 | 0.00 | 0.00 | 89 | 1233.4 |
| 20260906143631 | 22 | 153 | 14.5 | 17.7 | 0.00 | 0.00 | 0.00 | 89 | 1233.4 |
| 20260906143129 | 22 | 68 | 6.4 | 8.0 | 0.00 | 0.00 | 0.00 | 90 | 1233.4 |
| 20260906142628 | 22 | 68 | 6.4 | 9.7 | 0.00 | 0.00 | 0.00 | 91 | 1233.4 |
| 20260906142123 | 22 | 47 | 0.0 | 3.2 | 0.00 | 0.00 | 0.00 | 91 | 1233.4 |
| 20260906141622 | 21 | 35 | 6.4 | 12.9 | 0.00 | 0.00 | 0.00 | 91 | 1233.4 |
| 20260906141118 | 21 | 153 | 6.4 | 8.0 | 0.00 | 0.00 | 0.00 | 91 | 1233.4 |
| 20260906140617 | 21 | 8 | 1.6 | 4.8 | 0.00 | 0.00 | 0.00 | 91 | 1233.4 |
| 20260906140112 | 21 | 113 | 8.0 | 9.7 | 0.00 | 0.00 | 0.00 | 92 | 1233.4 |
| 20260906135609 | 21 | 170 | 6.4 | 8.0 | 0.00 | 0.00 | 0.00 | 91 | 1233.4 |
| 20260906135105 | 21 | 109 | 11.3 | 16.1 | 0.00 | 0.00 | 0.00 | 91 | 1233.4 |
| 20260906134600 | 21 | 157 | 6.4 | 8.0 | 0.00 | 0.00 | 0.00 | 91 | 1233.4 |
| 20260906134101 | 21 | 28 | 4.8 | 9.7 | 0.00 | 0.00 | 0.00 | 92 | 1233.4 |
| 20260906133556 | 21 | 58 | 9.7 | 9.7 | 0.00 | 0.00 | 0.00 | 93 | 1233.4 |
| 20260906133051 | 21 | 95 | 4.8 | 4.8 | 0.00 | 0.00 | 0.00 | 94 | 1233.4 |
| 20260906132546 | 21 | 112 | 3.2 | 4.8 | 0.00 | 0.00 | 0.00 | 94 | 1233.4 |
| 20260906132042 | 21 | 96 | 9.7 | 12.9 | 0.00 | 0.00 | 0.00 | 94 | 1233.4 |
| 20260906131537 | 20 | 108 | 4.8 | 4.8 | 0.00 | 0.00 | 0.00 | 95 | 1233.4 |
| 20260906131032 | 20 | 30 | 3.2 | 4.8 | 0.00 | 0.00 | 0.00 | 95 | 1233.4 |
| 20260906130532 | 20 | 210 | 3.2 | 8.0 | 0.00 | 0.00 | 0.00 | 95 | 1233.4 |
| 20260906130027 | 20 | 211 | 3.2 | 4.8 | 0.00 | 0.00 | 0.00 | 95 | 1233.4 |
| 20260906125525 | 20 | 85 | 3.2 | 4.8 | 0.00 | 0.00 | 0.00 | 95 | 1233.4 |
| 20260906125025 | 20 | 125 | 3.2 | 4.8 | 0.00 | 0.00 | 0.00 | 95 | 1233.4 |
| 20260906124520 | 20 | 180 | 4.8 | 8.0 | 0.00 | 0.00 | 0.00 | 96 | 1233.4 |
| 20260906124015 | 20 | 79 | 6.4 | 8.0 | 0.00 | 0.00 | 0.00 | 95 | 1233.4 |
| 20260906123514 | 20 | 48 | 3.2 | 4.8 | 0.00 | 0.00 | 0.00 | 96 | 1233.4 |
| 20260906123009 | 20 | 52 | 1.6 | 4.8 | 0.00 | 0.00 | 0.00 | 97 | 1233.4 |
| 20260906122503 | 20 | 72 | 4.8 | 8.0 | 0.00 | 0.00 | 0.00 | 97 | 1233.4 |
| 20260906121959 | 20 | 103 | 9.7 | 9.7 | 0.00 | 0.00 | 0.00 | 97 | 1233.4 |
| 20260906121455 | 20 | 30 | 3.2 | 4.8 | 0.00 | 0.00 | 0.00 | 98 | 1233.4 |
| 20260906120952 | 20 | 106 | 6.4 | 8.0 | 0.00 | 0.00 | 0.00 | 98 | 1233.4 |
| 20260906120447 | 20 | 87 | 3.2 | 8.0 | 0.00 | 0.00 | 0.00 | 98 | 1233.4 |
| 20260906115943 | 20 | 49 | 1.6 | 4.8 | 0.00 | 0.00 | 0.00 | 98 | 1233.4 |
| 20260906115438 | 20 | 32 | 1.6 | 3.2 | 0.00 | 0.00 | 0.00 | 97 | 1233.4 |
| 20260906114939 | 20 | 72 | 1.6 | 4.8 | 0.00 | 0.00 | 0.00 | 97 | 1233.4 |
| 20260906114438 | 20 | 336 | 0.0 | 0.0 | 0.00 | 0.00 | 0.00 | 97 | 1233.4 |
| 20260906113935 | 20 | 161 | 6.4 | 8.0 | 0.00 | 0.00 | 0.00 | 96 | 1233.4 |
| 20260906113433 | 20 | 48 | 3.2 | 4.8 | 0.00 | 0.00 | 0.00 | 96 | 1233.4 |
| 20260906112929 | 20 | 155 | 3.2 | 4.8 | 0.00 | 0.00 | 0.00 | 96 | 1233.4 |
| 20260906112424 | 20 | 143 | 3.2 | 4.8 | 0.00 | 0.00 | 0.00 | 96 | 1233.4 |
| 20260906111920 | 20 | 19 | 3.2 | 4.8 | 0.00 | 0.00 | 0.00 | 96 | 1233.4 |
| 20260906111419 | 20 | 93 | 1.6 | 4.8 | 0.00 | 0.00 | 0.00 | 96 | 1233.4 |
| 20260906110914 | 20 | 82 | 3.2 | 4.8 | 0.00 | 0.00 | 0.00 | 96 | 1233.4 |
| 20260906110409 | 20 | 293 | 1.6 | 3.2 | 0.00 | 0.00 | 0.00 | 96 | 1233.4 |
| 20260906105909 | 20 | 198 | 1.6 | 3.2 | 0.00 | 0.00 | 0.00 | 96 | 1233.4 |
| 20260906105404 | 21 | 64 | 0.0 | 3.2 | 0.00 | 0.00 | 0.00 | 96 | 1233.4 |
| 20260906104900 | 21 | 191 | 3.2 | 3.2 | 0.00 | 0.00 | 0.00 | 96 | 1233.4 |
| 20260906104358 | 21 | 231 | 1.6 | 3.2 | 0.00 | 0.00 | 0.00 | 96 | 1233.4 |
| 20260906103857 | 21 | 228 | 1.6 | 3.2 | 0.00 | 0.00 | 0.00 | 96 | 1233.4 |
| 20260906103356 | 21 | 274 | 0.0 | 0.0 | 0.00 | 0.00 | 0.00 | 97 | 1233.4 |
| 20260906102852 | 21 | 307 | 1.6 | 3.2 | 0.00 | 0.00 | 0.00 | 96 | 1233.4 |
| 20260906102351 | 21 | 286 | 1.6 | 3.2 | 0.00 | 0.00 | 0.00 | 95 | 1233.4 |
| 20260906101846 | 21 | 106 | 3.2 | 4.8 | 0.00 | 0.00 | 0.00 | 95 | 1233.4 |
| 20260906101341 | 21 | 126 | 6.4 | 8.0 | 0.00 | 0.00 | 0.00 | 95 | 1233.4 |
| 20260906100837 | 21 | 311 | 3.2 | 3.2 | 0.00 | 0.00 | 0.00 | 96 | 1233.4 |
| 20260906100335 | 21 | 145 | 8.0 | 9.7 | 0.00 | 0.00 | 0.00 | 96 | 1233.4 |
| 20260906095831 | 21 | 80 | 6.4 | 9.7 | 0.00 | 0.00 | 0.00 | 96 | 1233.4 |
| 20260906095326 | 21 | 175 | 4.8 | 8.0 | 0.00 | 0.00 | 0.00 | 96 | 1233.4 |
| 20260906094826 | 21 | 166 | 4.8 | 8.0 | 0.00 | 0.00 | 0.00 | 96 | 1233.4 |
| 20260906094321 | 21 | 209 | 3.2 | 3.2 | 0.00 | 0.00 | 0.00 | 96 | 1233.4 |
| 20260906093817 | 21 | 85 | 3.2 | 4.8 | 0.00 | 0.00 | 0.00 | 96 | 1233.4 |
| 20260906093313 | 21 | 69 | 3.2 | 4.8 | 0.00 | 0.00 | 0.00 | 96 | 1233.4 |
| 20260906092808 | 21 | 65 | 3.2 | 3.2 | 0.00 | 0.00 | 0.00 | 96 | 1233.4 |
| 20260906092308 | 21 | 72 | 3.2 | 4.8 | 0.00 | 0.00 | 0.00 | 95 | 1233.4 |
| 20260906091803 | 21 | 149 | 6.4 | 8.0 | 0.00 | 0.00 | 0.00 | 95 | 1233.4 |
| 20260906091259 | 21 | 222 | 0.0 | 3.2 | 0.00 | 0.00 | 0.00 | 95 | 1233.4 |
| 20260906090756 | 21 | 126 | 6.4 | 8.0 | 0.00 | 0.00 | 0.00 | 95 | 1233.4 |
| 20260906090255 | 21 | 109 | 9.7 | 12.9 | 0.00 | 0.00 | 0.00 | 95 | 1233.4 |
| 20260906085754 | 21 | 74 | 11.3 | 12.9 | 0.00 | 0.00 | 0.00 | 95 | 1233.4 |
| 20260906085253 | 21 | 228 | 3.2 | 4.8 | 0.00 | 0.00 | 0.00 | 96 | 1233.4 |
| 20260906084749 | 21 | 25 | 4.8 | 8.0 | 0.00 | 0.00 | 0.00 | 96 | 1233.4 |
| 20260906084248 | 21 | 175 | 8.0 | 12.9 | 0.00 | 0.00 | 0.00 | 96 | 1233.4 |
| 20260906083743 | 21 | 87 | 11.3 | 12.9 | 0.00 | 0.00 | 0.00 | 96 | 1233.4 |
| 20260906083239 | 21 | 74 | 3.2 | 8.0 | 0.00 | 0.00 | 0.00 | 97 | 1233.4 |
| 20260906082733 | 21 | 99 | 1.6 | 3.2 | 0.00 | 0.00 | 0.00 | 97 | 1233.4 |
| 20260906082228 | 21 | 67 | 3.2 | 4.8 | 0.00 | 0.00 | 0.00 | 97 | 1233.4 |
| 20260906081725 | 21 | 161 | 1.6 | 4.8 | 0.00 | 0.00 | 0.00 | 97 | 1233.4 |
| 20260906081219 | 21 | 63 | 8.0 | 9.7 | 0.00 | 0.00 | 0.00 | 97 | 1233.4 |
| 20260906080716 | 21 | 55 | 3.2 | 4.8 | 0.00 | 0.00 | 0.00 | 96 | 1233.4 |
| 20260906080212 | 21 | 79 | 6.4 | 8.0 | 0.00 | 0.00 | 0.00 | 96 | 1233.4 |
| 20260906075712 | 21 | 24 | 1.6 | 3.2 | 0.00 | 0.00 | 0.00 | 96 | 1233.4 |
| 20260906075206 | 21 | 182 | 1.6 | 3.2 | 0.00 | 0.00 | 0.00 | 96 | 1233.4 |
| 20260906074701 | 21 | 131 | 4.8 | 4.8 | 0.00 | 0.00 | 0.00 | 95 | 1233.4 |
| 20260906074201 | 21 | 198 | 3.2 | 4.8 | 0.00 | 0.00 | 0.00 | 95 | 1233.4 |
| 20260906073656 | 21 | 90 | 1.6 | 3.2 | 0.00 | 0.00 | 0.00 | 95 | 1233.4 |
| 20260906073151 | 22 | 218 | 6.4 | 8.0 | 0.00 | 0.00 | 0.00 | 95 | 1233.4 |
| 20260906072646 | 22 | 60 | 1.6 | 3.2 | 0.00 | 0.00 | 0.00 | 95 | 1233.4 |
| 20260906072142 | 22 | 72 | 9.7 | 16.1 | 0.00 | 0.00 | 0.00 | 94 | 1233.4 |
| 20260906071638 | 22 | 90 | 4.8 | 8.0 | 0.00 | 0.00 | 0.00 | 94 | 1233.4 |
| 20260906071137 | 22 | 113 | 4.8 | 4.8 | 0.00 | 0.00 | 0.00 | 94 | 1233.4 |
| 20260906070635 | 22 | 72 | 4.8 | 8.0 | 0.00 | 0.00 | 0.00 | 94 | 1233.4 |
| 20260906070130 | 22 | 85 | 6.4 | 8.0 | 0.00 | 0.00 | 0.00 | 93 | 1233.4 |
| 20260906065629 | 22 | 104 | 4.8 | 4.8 | 0.00 | 0.00 | 0.00 | 93 | 1233.4 |
| 20260906065125 | 22 | 149 | 4.8 | 8.0 | 0.00 | 0.00 | 0.00 | 94 | 1233.4 |
| 20260906064620 | 22 | 89 | 4.8 | 4.8 | 0.00 | 0.00 | 0.00 | 94 | 1233.4 |
| 20260906064115 | 22 | 286 | 0.0 | 0.0 | 0.00 | 0.00 | 0.00 | 94 | 1233.4 |
| 20260906063616 | 22 | 228 | 3.2 | 4.8 | 0.00 | 0.00 | 0.00 | 93 | 1233.4 |
| 20260906063112 | 22 | 4 | 3.2 | 4.8 | 0.00 | 0.00 | 0.00 | 93 | 1233.4 |
| 20260906062607 | 22 | 345 | 1.6 | 3.2 | 0.00 | 0.00 | 0.00 | 93 | 1233.4 |
| 20260906062106 | 22 | 319 | 1.6 | 3.2 | 0.00 | 0.00 | 0.00 | 93 | 1233.4 |
| 20260906061603 | 22 | 359 | 1.6 | 3.2 | 0.00 | 0.00 | 0.00 | 93 | 1233.4 |
| 20260906061102 | 22 | 312 | 0.0 | 3.2 | 0.00 | 0.00 | 0.00 | 93 | 1233.4 |
| 20260906060559 | 22 | 264 | 1.6 | 3.2 | 0.00 | 0.00 | 0.00 | 93 | 1233.4 |
| 20260906060055 | 22 | 333 | 6.4 | 8.0 | 0.00 | 0.00 | 0.00 | 93 | 1233.4 |
| 20260906055551 | 22 | 64 | 3.2 | 4.8 | 0.00 | 0.00 | 0.00 | 93 | 1233.4 |
| 20260906055046 | 22 | 17 | 1.6 | 3.2 | 0.00 | 0.00 | 0.00 | 93 | 1233.4 |
| 20260906054541 | 22 | 283 | 0.0 | 3.2 | 0.00 | 0.00 | 0.00 | 93 | 1233.4 |
| 20260906054036 | 22 | 301 | 0.0 | 0.0 | 0.00 | 0.00 | 0.00 | 92 | 1233.4 |
| 20260906053532 | 22 | 59 | 3.2 | 4.8 | 0.00 | 0.00 | 0.00 | 93 | 1233.4 |
| 20260906053028 | 22 | 65 | 1.6 | 3.2 | 0.00 | 0.00 | 0.00 | 93 | 1233.4 |
| 20260906052523 | 22 | 305 | 3.2 | 4.8 | 0.00 | 0.00 | 0.00 | 92 | 1233.4 |
| 20260906052020 | 23 | 47 | 3.2 | 8.0 | 0.00 | 0.00 | 0.00 | 92 | 1233.4 |
| 20260906051516 | 23 | 192 | 1.6 | 3.2 | 0.00 | 0.00 | 0.00 | 91 | 1233.4 |
| 20260906051011 | 23 | 177 | 1.6 | 3.2 | 0.00 | 0.00 | 0.00 | 92 | 1233.4 |
| 20260906050511 | 23 | 164 | 3.2 | 4.8 | 0.00 | 0.00 | 0.00 | 92 | 1233.4 |
| 20260906050006 | 23 | 184 | 3.2 | 3.2 | 0.00 | 0.00 | 0.00 | 91 | 1233.4 |
| 20260906045504 | 23 | 68 | 3.2 | 4.8 | 0.00 | 0.00 | 0.00 | 91 | 1233.4 |
| 20260906045000 | 23 | 47 | 3.2 | 4.8 | 0.00 | 0.00 | 0.00 | 91 | 1233.4 |
| 20260906044455 | 23 | 74 | 6.4 | 12.9 | 0.00 | 0.00 | 0.00 | 91 | 1233.4 |
| 20260906043951 | 23 | 32 | 1.6 | 3.2 | 0.00 | 0.00 | 0.00 | 91 | 1233.4 |
| 20260906043447 | 23 | 40 | 8.0 | 9.7 | 0.00 | 0.00 | 0.00 | 91 | 1233.4 |
| 20260906042942 | 23 | 80 | 1.6 | 4.8 | 0.00 | 0.00 | 0.00 | 91 | 1233.4 |
| 20260906042441 | 23 | 328 | 0.0 | 3.2 | 0.00 | 0.00 | 0.00 | 91 | 1233.4 |
| 20260906041936 | 23 | 349 | 3.2 | 4.8 | 0.00 | 0.00 | 0.00 | 91 | 1233.4 |
| 20260906041433 | 23 | 235 | 0.0 | 0.0 | 0.00 | 0.00 | 0.00 | 90 | 1233.4 |
| 20260906040932 | 23 | 173 | 3.2 | 4.8 | 0.00 | 0.00 | 0.00 | 90 | 1233.4 |
| 20260906040427 | 23 | 222 | 3.2 | 4.8 | 0.00 | 0.00 | 0.00 | 90 | 1233.4 |
| 20260906035922 | 23 | 294 | 0.0 | 0.0 | 0.00 | 0.00 | 0.00 | 89 | 1233.4 |
| 20260906035418 | 23 | 145 | 0.0 | 3.2 | 0.00 | 0.00 | 0.00 | 89 | 1233.4 |
| 20260906034913 | 23 | 53 | 1.6 | 3.2 | 0.00 | 0.00 | 0.00 | 88 | 1233.4 |
| 20260906034413 | 23 | 18 | 1.6 | 3.2 | 0.00 | 0.00 | 0.00 | 88 | 1233.4 |
| 20260906033909 | 23 | 122 | 4.8 | 4.8 | 0.00 | 0.00 | 0.00 | 89 | 1233.4 |
| 20260906033408 | 23 | 48 | 4.8 | 8.0 | 0.00 | 0.00 | 0.00 | 89 | 1233.4 |
| 20260906032905 | 23 | 83 | 3.2 | 4.8 | 0.00 | 0.00 | 0.00 | 89 | 1233.4 |
| 20260906032401 | 23 | 183 | 0.0 | 3.2 | 0.00 | 0.00 | 0.00 | 89 | 1233.4 |
| 20260906031901 | 23 | 195 | 4.8 | 8.0 | 0.00 | 0.00 | 0.00 | 89 | 1233.4 |
| 20260906031356 | 23 | 26 | 1.6 | 4.8 | 0.00 | 0.00 | 0.00 | 90 | 1233.4 |
| 20260906030851 | 24 | 56 | 1.6 | 3.2 | 0.00 | 0.00 | 0.00 | 90 | 1233.4 |
| 20260906030347 | 24 | 105 | 4.8 | 8.0 | 0.00 | 0.00 | 0.00 | 90 | 1233.4 |
| 20260906025846 | 24 | 32 | 3.2 | 4.8 | 0.00 | 0.00 | 0.00 | 90 | 1233.4 |
| 20260906025341 | 24 | 43 | 4.8 | 8.0 | 0.00 | 0.00 | 0.00 | 90 | 1233.4 |
| 20260906024840 | 24 | 64 | 3.2 | 4.8 | 0.00 | 0.00 | 0.00 | 91 | 1233.4 |
| 20260906024339 | 24 | 52 | 3.2 | 8.0 | 0.00 | 0.00 | 0.00 | 90 | 1233.4 |
| 20260906023834 | 24 | 173 | 0.0 | 0.0 | 0.00 | 0.00 | 0.00 | 90 | 1233.4 |
| 20260906023330 | 24 | 133 | 1.6 | 4.8 | 0.00 | 0.00 | 0.00 | 90 | 1233.4 |
| 20260906022825 | 24 | 73 | 4.8 | 9.7 | 0.00 | 0.00 | 0.00 | 90 | 1233.4 |
| 20260906022321 | 24 | 67 | 4.8 | 8.0 | 0.00 | 0.00 | 0.00 | 90 | 1233.4 |
| 20260906021816 | 25 | 48 | 3.2 | 4.8 | 0.00 | 0.00 | 0.00 | 90 | 1233.4 |
| 20260906021315 | 25 | 77 | 8.0 | 9.7 | 0.00 | 0.00 | 0.00 | 89 | 1233.4 |
| 20260906020816 | 25 | 126 | 4.8 | 4.8 | 0.00 | 0.00 | 0.00 | 89 | 1233.4 |
| 20260906020315 | 25 | 43 | 4.8 | 8.0 | 0.00 | 0.00 | 0.00 | 89 | 1233.4 |
| 20260906015810 | 25 | 61 | 1.6 | 3.2 | 0.00 | 0.00 | 0.00 | 89 | 1233.4 |
| 20260906015309 | 25 | 317 | 4.8 | 9.7 | 0.00 | 0.00 | 0.00 | 89 | 1233.4 |
| 20260906014809 | 25 | 69 | 4.8 | 8.0 | 0.00 | 0.00 | 0.00 | 89 | 1233.4 |
| 20260906014304 | 25 | 41 | 3.2 | 4.8 | 0.00 | 0.00 | 0.00 | 89 | 1233.4 |
| 20260906013801 | 25 | 307 | 1.6 | 3.2 | 0.00 | 0.00 | 0.00 | 89 | 1233.4 |
| 20260906013301 | 25 | 277 | 0.0 | 0.0 | 0.00 | 0.00 | 0.00 | 89 | 1233.4 |
| 20260906012756 | 25 | 246 | 0.0 | 0.0 | 0.00 | 0.00 | 0.00 | 89 | 1233.4 |
| 20260906012251 | 25 | 261 | 0.0 | 0.0 | 0.00 | 0.00 | 0.00 | 89 | 1233.4 |
| 20260906011746 | 25 | 285 | 0.0 | 3.2 | 0.00 | 0.00 | 0.00 | 89 | 1233.4 |
| 20260906011246 | 25 | 185 | 1.6 | 3.2 | 0.00 | 0.00 | 0.00 | 88 | 1233.4 |
| 20260906010742 | 25 | 330 | 0.0 | 0.0 | 0.00 | 0.00 | 0.00 | 88 | 1233.4 |
| 20260906010238 | 25 | 337 | 1.6 | 4.8 | 0.00 | 0.00 | 0.00 | 89 | 1233.4 |
| 20260906005733 | 25 | 294 | 1.6 | 3.2 | 0.00 | 0.00 | 0.00 | 87 | 1233.4 |
| 20260906005232 | 25 | 204 | 1.6 | 3.2 | 0.00 | 0.00 | 0.00 | 87 | 1233.4 |
| 20260906004731 | 25 | 329 | 3.2 | 3.2 | 0.00 | 0.00 | 0.00 | 86 | 1233.4 |
| 20260906004227 | 26 | 321 | 1.6 | 3.2 | 0.00 | 0.00 | 0.00 | 87 | 1233.4 |
| 20260906003721 | 26 | 325 | 1.6 | 3.2 | 0.00 | 0.00 | 0.00 | 86 | 1233.4 |
| 20260906003217 | 26 | 329 | 0.0 | 0.0 | 0.00 | 0.00 | 0.00 | 86 | 1233.4 |
| 20260906002717 | 26 | 169 | 0.0 | 3.2 | 0.00 | 0.00 | 0.00 | 86 | 1233.4 |
| 20260906002212 | 26 | 11 | 3.2 | 4.8 | 0.00 | 0.00 | 0.00 | 86 | 1233.4 |
| 20260906001707 | 26 | 333 | 1.6 | 3.2 | 0.00 | 0.00 | 0.00 | 85 | 1233.4 |
| 20260906001207 | 26 | 262 | 0.0 | 0.0 | 0.00 | 0.00 | 0.00 | 85 | 1233.4 |
| 20260906000703 | 26 | 276 | 0.0 | 3.2 | 0.00 | 0.00 | 0.00 | 84 | 1233.4 |
| 20260906000158 | 26 | 292 | 1.6 | 3.2 | 0.00 | 0.00 | 0.00 | 84 | 1233.4 |
| 20260905235657 | 26 | 56 | 4.8 | 8.0 | 0.00 | 0.00 | 0.00 | 84 | 1233.4 |
| 20260905235152 | 27 | 152 | 4.8 | 8.0 | 0.00 | 0.00 | 0.00 | 83 | 1233.4 |
| 20260905234647 | 27 | 103 | 6.4 | 9.7 | 0.00 | 0.00 | 0.00 | 83 | 1233.4 |
| 20260905234143 | 27 | 196 | 1.6 | 3.2 | 0.00 | 0.00 | 0.00 | 82 | 1233.4 |
| 20260905233638 | 27 | 297 | 1.6 | 3.2 | 0.00 | 0.00 | 0.00 | 81 | 1233.4 |
| 20260905233137 | 27 | 181 | 3.2 | 4.8 | 0.00 | 0.00 | 0.00 | 81 | 1233.4 |
| 20260905232632 | 27 | 340 | 3.2 | 4.8 | 0.00 | 0.00 | 0.00 | 81 | 1233.4 |
| 20260905232128 | 27 | 34 | 4.8 | 8.0 | 0.00 | 0.00 | 0.00 | 81 | 1233.4 |
| 20260905231623 | 27 | 109 | 6.4 | 12.9 | 0.00 | 0.00 | 0.00 | 81 | 1233.4 |
| 20260905231119 | 27 | 133 | 4.8 | 8.0 | 0.00 | 0.00 | 0.00 | 81 | 1233.4 |
| 20260905230615 | 28 | 10 | 4.8 | 9.7 | 0.00 | 0.00 | 0.00 | 80 | 1233.4 |
| 20260905230113 | 28 | 90 | 11.3 | 16.1 | 0.00 | 0.00 | 0.00 | 80 | 1233.4 |
| 20260905225612 | 28 | 87 | 8.0 | 9.7 | 0.00 | 0.00 | 0.00 | 80 | 1233.4 |
| 20260905225108 | 28 | 90 | 3.2 | 4.8 | 0.00 | 0.00 | 0.00 | 80 | 1233.4 |
| 20260905224607 | 28 | 87 | 9.7 | 9.7 | 0.00 | 0.00 | 0.00 | 80 | 1233.4 |
| 20260905224107 | 29 | 42 | 8.0 | 9.7 | 0.00 | 0.00 | 0.00 | 80 | 1233.4 |
| 20260905223604 | 29 | 8 | 8.0 | 12.9 | 0.00 | 0.00 | 0.00 | 79 | 1233.4 |
| 20260905223101 | 30 | 43 | 9.7 | 12.9 | 0.00 | 0.00 | 0.00 | 79 | 1233.4 |
| 20260905222600 | 30 | 358 | 8.0 | 16.1 | 0.00 | 0.00 | 0.00 | 80 | 1233.4 |
| 20260905222055 | 30 | 84 | 4.8 | 8.0 | 0.00 | 0.00 | 0.00 | 79 | 1233.4 |
| 20260905221552 | 30 | 30 | 9.7 | 9.7 | 0.00 | 0.00 | 0.00 | 78 | 1233.4 |
| 20260905221047 | 30 | 153 | 8.0 | 9.7 | 0.00 | 0.00 | 0.00 | 78 | 1233.4 |
| 20260905220543 | 30 | 233 | 3.2 | 4.8 | 0.00 | 0.00 | 0.00 | 77 | 1233.4 |
| 20260905220039 | 31 | 26 | 4.8 | 9.7 | 0.00 | 0.00 | 0.00 | 74 | 1233.4 |
| 20260905215538 | 31 | 143 | 3.2 | 4.8 | 0.00 | 0.00 | 0.00 | 75 | 1233.4 |
| 20260905215034 | 31 | 232 | 6.4 | 12.9 | 0.00 | 0.00 | 0.00 | 75 | 1233.4 |
| 20260905214530 | 31 | 25 | 9.7 | 12.9 | 0.00 | 0.00 | 0.00 | 73 | 1233.4 |
| 20260905214025 | 31 | 59 | 3.2 | 4.8 | 0.00 | 0.00 | 0.00 | 74 | 1233.4 |
| 20260905213520 | 31 | 98 | 9.7 | 12.9 | 0.00 | 0.00 | 0.00 | 74 | 1233.4 |
| 20260905213016 | 31 | 4 | 4.8 | 4.8 | 0.00 | 0.00 | 0.00 | 75 | 1233.4 |
| 20260905212511 | 31 | 75 | 4.8 | 9.7 | 0.00 | 0.00 | 0.00 | 72 | 1233.4 |
| 20260905212010 | 31 | 314 | 14.5 | 20.9 | 0.00 | 0.00 | 0.00 | 74 | 1233.4 |
| 20260905211505 | 31 | 19 | 4.8 | 8.0 | 0.00 | 0.00 | 0.00 | 73 | 1233.4 |
| 20260905211001 | 32 | 63 | 9.7 | 12.9 | 0.00 | 0.00 | 0.00 | 73 | 1233.4 |
| 20260905210457 | 32 | 256 | 3.2 | 4.8 | 0.00 | 0.00 | 0.00 | 72 | 1233.4 |
| 20260905205955 | 32 | 279 | 1.6 | 3.2 | 0.00 | 0.00 | 0.00 | 73 | 1233.4 |
| 20260905205451 | 31 | 342 | 9.7 | 12.9 | 0.00 | 0.00 | 0.00 | 74 | 1233.4 |
| 20260905204949 | 31 | 324 | 9.7 | 12.9 | 0.00 | 0.00 | 0.00 | 73 | 1233.4 |
| 20260905204445 | 32 | 284 | 6.4 | 8.0 | 0.00 | 0.00 | 0.00 | 73 | 1233.4 |
| 20260905203944 | 32 | 171 | 3.2 | 8.0 | 0.00 | 0.00 | 0.00 | 71 | 1233.4 |
| 20260905203440 | 31 | 279 | 3.2 | 3.2 | 0.00 | 0.00 | 0.00 | 73 | 1233.4 |
| 20260905202936 | 32 | 13 | 4.8 | 8.0 | 0.00 | 0.00 | 0.00 | 73 | 1233.4 |
| 20260905202431 | 32 | 265 | 1.6 | 3.2 | 0.00 | 0.00 | 0.00 | 73 | 1233.4 |
| 20260905201926 | 32 | 331 | 6.4 | 8.0 | 0.00 | 0.00 | 0.00 | 72 | 1233.4 |
| 20260905201421 | 32 | 215 | 8.0 | 9.7 | 0.00 | 0.00 | 0.00 | 72 | 1233.4 |
| 20260905200921 | 32 | 252 | 4.8 | 8.0 | 0.00 | 0.00 | 0.00 | 74 | 1233.4 |
| 20260905200417 | 32 | 26 | 8.0 | 9.7 | 0.00 | 0.00 | 0.00 | 72 | 1233.4 |
| 20260905195915 | 32 | 274 | 9.7 | 12.9 | 0.00 | 0.00 | 0.00 | 72 | 1233.4 |
| 20260905195410 | 32 | 56 | 6.4 | 8.0 | 0.00 | 0.00 | 0.00 | 70 | 1233.4 |
| 20260905194906 | 32 | 69 | 6.4 | 9.7 | 0.00 | 0.00 | 0.00 | 72 | 1233.4 |
| 20260905194406 | 32 | 41 | 3.2 | 4.8 | 0.00 | 0.00 | 0.00 | 73 | 1233.4 |
| 20260905193906 | 32 | 64 | 4.8 | 8.0 | 0.00 | 0.00 | 0.00 | 73 | 1233.4 |
| 20260905193400 | 32 | 60 | 4.8 | 8.0 | 0.00 | 0.00 | 0.00 | 73 | 1233.4 |
| 20260905192856 | 32 | 210 | 3.2 | 4.8 | 0.00 | 0.00 | 0.00 | 74 | 1233.4 |
| 20260905192351 | 32 | 356 | 4.8 | 8.0 | 0.00 | 0.00 | 0.00 | 72 | 1233.4 |
| 20260905191851 | 32 | 331 | 3.2 | 4.8 | 0.00 | 0.00 | 0.00 | 74 | 1233.4 |
| 20260905191350 | 31 | 349 | 3.2 | 8.0 | 0.00 | 0.00 | 0.00 | 75 | 1233.4 |
| 20260905190850 | 32 | 316 | 8.0 | 12.9 | 0.00 | 0.00 | 0.00 | 74 | 1233.4 |
| 20260905190348 | 32 | 310 | 8.0 | 9.7 | 0.00 | 0.00 | 0.00 | 74 | 1233.4 |
| 20260905185847 | 32 | 347 | 6.4 | 8.0 | 0.00 | 0.00 | 0.00 | 72 | 1233.4 |
| 20260905185343 | 31 | 280 | 1.6 | 3.2 | 0.00 | 0.00 | 0.00 | 75 | 1233.4 |
| 20260905184842 | 32 | 255 | 3.2 | 8.0 | 0.00 | 0.00 | 0.00 | 76 | 1233.4 |
| 20260905184341 | 32 | 6 | 3.2 | 4.8 | 0.00 | 0.00 | 0.00 | 74 | 1233.4 |
| 20260905183839 | 32 | 277 | 3.2 | 4.8 | 0.00 | 0.00 | 0.00 | 73 | 1233.4 |
| 20260905183335 | 32 | 345 | 11.3 | 16.1 | 0.00 | 0.00 | 0.00 | 73 | 1233.4 |
| 20260905182836 | 31 | 250 | 1.6 | 3.2 | 0.00 | 0.00 | 0.00 | 76 | 1233.4 |
| 20260905182335 | 31 | 320 | 4.8 | 8.0 | 0.00 | 0.00 | 0.00 | 74 | 1233.4 |
| 20260905181831 | 31 | 253 | 3.2 | 4.8 | 0.00 | 0.00 | 0.00 | 75 | 1233.4 |
| 20260905181330 | 32 | 229 | 1.6 | 3.2 | 0.00 | 0.00 | 0.00 | 72 | 1233.4 |
| 20260905180829 | 32 | 252 | 0.0 | 0.0 | 0.00 | 0.00 | 0.00 | 73 | 1233.4 |
| 20260905180325 | 31 | 322 | 1.6 | 4.8 | 0.00 | 0.00 | 0.00 | 76 | 1233.4 |
| 20260905175819 | 31 | 60 | 9.7 | 12.9 | 0.00 | 0.00 | 0.00 | 77 | 1233.4 |
| 20260905175314 | 32 | 4 | 3.2 | 3.2 | 0.00 | 0.00 | 0.00 | 74 | 1233.4 |
| 20260905174809 | 31 | 75 | 4.8 | 8.0 | 0.00 | 0.00 | 0.00 | 76 | 1233.4 |
| 20260905174305 | 31 | 43 | 9.7 | 12.9 | 0.00 | 0.00 | 0.00 | 76 | 1233.4 |
| 20260905173801 | 31 | 12 | 4.8 | 8.0 | 0.00 | 0.00 | 0.00 | 77 | 1233.4 |
| 20260905173257 | 31 | 326 | 3.2 | 4.8 | 0.00 | 0.00 | 0.00 | 77 | 1233.4 |
| 20260905172756 | 31 | 107 | 8.0 | 8.0 | 0.00 | 0.00 | 0.00 | 76 | 1233.4 |
| 20260905172254 | 31 | 51 | 4.8 | 8.0 | 0.00 | 0.00 | 0.00 | 77 | 1233.4 |
| 20260905171751 | 31 | 236 | 1.6 | 3.2 | 0.00 | 0.00 | 0.00 | 78 | 1233.4 |
| 20260905171247 | 31 | 89 | 4.8 | 8.0 | 0.00 | 0.00 | 0.00 | 77 | 1233.4 |
| 20260905170743 | 31 | 78 | 4.8 | 4.8 | 0.00 | 0.00 | 0.00 | 77 | 1233.4 |
| 20260905170239 | 30 | 21 | 8.0 | 9.7 | 0.00 | 0.00 | 0.00 | 77 | 1233.4 |
| 20260905165738 | 30 | 15 | 6.4 | 9.7 | 0.00 | 0.00 | 0.00 | 77 | 1233.4 |
| 20260905165234 | 30 | 156 | 8.0 | 9.7 | 0.00 | 0.00 | 0.00 | 78 | 1233.4 |